This is the latest recevied weather packets stored in our database for station/object AD0YN. If no packets are shown the sender has not sent any weather packets the latest 10 day(s).
| Time | Temp. | Humidity | Pressure | Rain* | Wind** | Luminosity | Snow |
|---|---|---|---|---|---|---|---|
| 1788569468 | 31.11° C | 56% | 1012.1 hPa | 0 mm | - | 1 W/m² | - |
| 1788569168 | 31.67° C | 55% | 1011.8 hPa | 0 mm | - | 2 W/m² | - |
| 1788568863 | 32.22° C | 54% | 1011.9 hPa | 0 mm | - | 4 W/m² | - |
| 1788568558 | 32.22° C | 53% | 1012 hPa | 0 mm | - | 7 W/m² | - |
| 1788568254 | 32.78° C | 52% | 1011.9 hPa | 0 mm | - | 11 W/m² | - |
| 1788567950 | 32.78° C | 52% | 1011.8 hPa | 0 mm | - | 15 W/m² | - |
| 1788567644 | 33.33° C | 50% | 1012 hPa | 0 mm | - | 19 W/m² | - |
| 1788567339 | 33.89° C | 49% | 1012.1 hPa | 0 mm | - | 24 W/m² | - |
| 1788567038 | 33.89° C | 49% | 1012 hPa | 0 mm | - | 30 W/m² | - |
| 1788566734 | 33.89° C | 48% | 1012.2 hPa | 0 mm | - | 36 W/m² | - |
| 1788566430 | 34.44° C | 47% | 1012 hPa | 0 mm | - | 41 W/m² | - |
| 1788566125 | 34.44° C | 48% | 1012 hPa | 0 mm | - | 47 W/m² | - |
| 1788565824 | 34.44° C | 47% | 1012 hPa | 0 mm | - | 54 W/m² | - |
| 1788565524 | 35° C | 47% | 1012 hPa | 0 mm | - | 61 W/m² | - |
| 1788565221 | 35° C | 47% | 1012.1 hPa | 0 mm | - | 69 W/m² | - |
| 1788564916 | 35° C | 45% | 1012 hPa | 0 mm | - | 73 W/m² | - |
| 1788564612 | 35° C | 45% | 1012.1 hPa | 0 mm | - | 74 W/m² | - |
| 1788564308 | 35.56° C | 45% | 1012 hPa | 0 mm | - | 91 W/m² | - |
| 1788564004 | 35° C | 44% | 1012.2 hPa | 0 mm | - | 86 W/m² | - |
| 1788563700 | 35.56° C | 44% | 1012.3 hPa | 0 mm | - | 98 W/m² | - |
| 1788563394 | 35.56° C | 44% | 1012.3 hPa | 0 mm | - | 108 W/m² | - |
| 1788563093 | 35.56° C | 44% | 1012.2 hPa | 0 mm | - | 147 W/m² | - |
| 1788562788 | 35.56° C | 45% | 1012.2 hPa | 0 mm | - | 144 W/m² | - |
| 1788562487 | 35.56° C | 45% | 1012.1 hPa | 0 mm | - | 158 W/m² | - |
| 1788562186 | 35.56° C | 43% | 1012.1 hPa | 0 mm | - | 186 W/m² | - |
* Rain latest hour (hover to see other rain measurements)
** Current wind speed in m/s (hover to see current wind gust speed)